Date String (YYYY-MM-DD hh:mm:ss) UTC,Instrument flags,absolute air pressure of the measurement (hPa),sample flow rate (lpm),inlet stack bypass flow (lpm),air temperature of the measurement (°C),ambient temperature measured by the external sensor (°C),aerosol sample conditioner tube jacket temperature (°C),OPC LED temperature (°C),internal box temperature (°C),relative humidity of the measurement (%),span deviation,mass concentration of particles derived from Lorenz-Mie calculation of OPC scattering (μg/m³),mass concentration of particles derived from Lorenz-Mie calculation of OPC scattering (μg/m³),mass concentration of particles derived from Lorenz-Mie calculation of OPC scattering (μg/m³)
DateTimeUTC,F1_M11,P_M11,Q1_M11,Q2_M11,T1_M11,T2_M11,T3_M11,T4_M11,T5_M11,U1_M11,ZSPAN_M11,X2_M11,X0_M11,X1_M11
2023-10-09 09:00:00,SystemResetWarning,0830.6,5.00,000.00,028.9,027.4,000.0,037.4,030.5,12.1,0000.0,0003.26,0009.48,0002.15
2023-10-09 09:01:00,SystemResetWarning,0830.6,5.00,000.00,028.9,027.4,000.0,037.4,030.5,12.0,0000.0,0003.27,0009.13,0002.16
2023-10-09 09:02:00,SystemResetWarning,0830.6,4.99,000.00,028.9,027.4,000.0,037.4,030.5,12.0,0000.0,0003.26,0008.79,0002.16
2023-10-09 09:03:00,SystemResetWarning,0830.6,5.01,000.00,028.9,027.4,000.0,037.4,030.5,12.1,0000.0,0003.25,0008.57,0002.16
2023-10-09 09:04:00,SystemResetWarning,0830.6,5.00,000.00,028.9,027.4,000.0,037.4,030.5,12.1,0000.0,0003.27,0008.42,0002.19
2023-10-09 09:05:00,SystemResetWarning,0830.6,5.00,000.00,028.9,027.4,000.0,037.4,030.5,12.1,0000.0,0003.27,0008.61,0002.21
2023-10-09 09:06:00,SystemResetWarning,0830.5,5.01,000.00,028.9,027.4,000.0,037.4,030.5,12.1,0000.0,0003.27,0008.53,0002.22
2023-10-09 09:07:00,SystemResetWarning,0830.6,5.00,000.00,028.9,027.4,000.0,037.4,030.5,12.1,0000.0,0003.25,0008.38,0002.22
2023-10-09 09:08:00,SystemResetWarning,0830.5,4.99,000.00,028.9,027.4,000.0,037.4,030.5,12.1,0000.0,0003.26,0008.47,0002.24
2023-10-09 09:09:00,SystemResetWarning,0830.4,4.99,000.00,028.9,027.4,000.0,037.4,030.5,12.1,0000.0,0003.22,0008.10,0002.24
2023-10-09 09:10:00,SystemResetWarning,0830.4,5.00,000.00,028.9,027.4,000.0,037.4,030.5,12.1,0000.0,0003.18,0007.52,0002.24
2023-10-09 09:11:00,SystemResetWarning,0830.5,5.00,000.00,028.9,027.4,000.0,037.4,030.5,12.1,0000.0,0003.13,0007.16,0002.23
2023-10-09 09:12:00,SystemResetWarning,0830.6,5.01,000.00,028.9,027.4,000.0,037.4,030.5,12.1,0000.0,0003.12,0007.57,0002.24
2023-10-09 09:13:00,SystemResetWarning,0830.4,5.00,000.00,028.9,027.4,000.0,037.4,030.5,12.1,0000.0,0003.15,0007.57,0002.25
2023-10-09 09:14:00,SystemResetWarning,0830.4,5.01,000.00,028.9,027.4,000.0,037.4,030.5,12.1,0000.0,0003.13,0007.49,0002.25
2023-10-09 09:15:00,SystemResetWarning,0830.4,5.00,000.00,028.9,027.4,000.0,037.4,030.5,12.1,0000.0,0003.10,0007.36,0002.23
2023-10-09 09:16:00,SystemResetWarning,0830.4,4.99,000.00,028.9,027.4,000.0,037.4,030.5,12.1,0000.0,0003.08,0007.02,0002.21
2023-10-09 09:17:00,SystemResetWarning,0830.4,4.99,000.00,028.9,027.4,000.0,037.4,030.5,12.1,0000.0,0003.10,0007.45,0002.21
2023-10-09 09:18:00,SystemResetWarning,0830.4,5.00,000.00,028.9,027.4,000.0,037.4,030.5,12.1,0000.0,0003.11,0007.99,0002.21
2023-10-09 09:19:00,SystemResetWarning,0830.4,5.00,000.00,028.9,027.4,000.0,037.4,030.5,12.1,0000.0,0003.11,0008.04,0002.20
2023-10-09 09:20:00,SystemResetWarning,0830.4,5.00,000.00,028.9,027.4,000.0,037.4,030.5,12.1,0000.0,0003.09,0008.45,0002.20
2023-10-09 09:21:00,SystemResetWarning,0830.4,5.01,000.00,028.9,027.4,000.0,037.4,030.5,12.1,0000.0,0003.07,0008.84,0002.19
2023-10-09 09:22:00,SystemResetWarning,0830.3,5.00,000.00,028.9,027.4,000.0,037.4,030.5,12.1,0000.0,0003.08,0008.81,0002.19
2023-10-09 09:23:00,SystemResetWarning,0830.4,4.99,000.00,028.9,027.4,000.0,037.4,030.5,12.1,0000.0,0003.10,0008.59,0002.19
2023-10-09 09:24:00,SystemResetWarning,0830.3,4.99,000.00,028.9,027.4,000.0,037.4,030.5,12.1,0000.0,0003.10,0008.95,0002.19
2023-10-09 09:25:00,SystemResetWarning,0830.3,5.00,000.00,028.9,027.4,000.0,037.4,030.5,12.1,0000.0,0003.11,0009.63,0002.19
2023-10-09 09:26:00,SystemResetWarning,0830.3,5.00,000.00,028.9,027.4,000.0,037.4,030.5,12.1,0000.0,0003.12,0009.73,0002.21
2023-10-09 09:27:00,SystemResetWarning,0830.3,5.00,000.00,028.9,027.4,000.0,037.4,030.5,12.1,0000.0,0003.12,0009.65,0002.22
2023-10-09 09:28:00,SystemResetWarning,0830.3,5.01,000.00,028.9,027.4,000.0,037.4,030.5,12.1,0000.0,0003.08,0009.28,0002.23
2023-10-09 09:29:00,SystemResetWarning,0830.3,5.01,000.00,028.9,027.4,000.0,037.4,030.5,12.1,0000.0,0003.06,0008.92,0002.24
2023-10-09 09:30:00,SystemResetWarning,0830.3,5.00,000.00,028.9,027.4,000.0,037.4,030.5,12.1,0000.0,0003.07,0008.72,0002.25
2023-10-09 09:31:00,SystemResetWarning,0830.3,4.99,000.00,028.9,027.4,000.0,037.4,030.5,12.1,0000.0,0003.03,0008.29,0002.25
2023-10-09 09:32:00,SystemResetWarning,0830.3,4.99,000.00,028.9,027.4,000.0,037.4,030.5,12.1,0000.0,0003.02,0007.72,0002.27
2023-10-09 09:33:00,SystemResetWarning,0830.3,4.99,000.00,028.9,027.4,000.0,037.4,030.5,12.1,0000.0,0003.02,0007.71,0002.27
2023-10-09 09:34:00,SystemResetWarning,0830.3,5.01,000.00,028.9,027.4,000.0,037.4,030.5,12.1,0000.0,0002.96,0007.57,0002.26
2023-10-09 09:35:00,SystemResetWarning,0830.2,5.01,000.00,028.9,027.4,000.0,037.4,030.5,12.1,0000.0,0002.94,0007.46,0002.27
2023-10-09 09:36:00,SystemResetWarning,0830.2,5.00,000.00,028.9,027.4,000.0,037.4,030.5,12.1,0000.0,0002.96,0006.52,0002.28
2023-10-09 09:37:00,SystemResetWarning,0830.3,4.99,000.00,028.9,027.4,000.0,037.4,030.5,12.1,0000.0,0002.96,0006.97,0002.28
2023-10-09 09:38:00,SystemResetWarning,0830.2,5.01,000.00,028.9,027.4,000.0,037.4,030.5,12.1,0000.0,0002.97,0006.95,0002.28
2023-10-09 09:39:00,SystemResetWarning,0830.2,5.01,000.00,028.9,027.4,000.0,037.4,030.5,12.1,0000.0,0003.09,0007.49,0002.29
2023-10-09 09:40:00,SystemResetWarning,0830.2,5.01,000.00,028.9,027.4,000.0,037.3,030.5,12.1,0000.0,0003.11,0008.59,0002.30
2023-10-09 09:41:00,SystemResetWarning,0830.2,5.00,000.00,028.9,027.4,000.0,037.4,030.5,12.1,0000.0,0003.10,0009.44,0002.30
2023-10-09 09:42:00,SystemResetWarning,0830.2,5.00,000.00,028.9,027.3,000.0,037.3,030.4,12.1,0000.0,0003.13,0009.73,0002.30
2023-10-09 09:43:00,SystemResetWarning,0830.2,5.00,000.00,028.9,027.3,000.0,037.3,030.5,12.2,0000.0,0003.14,0009.69,0002.29
2023-10-09 09:44:00,SystemResetWarning,0830.2,5.00,000.00,028.9,027.3,000.0,037.3,030.5,12.2,0000.0,0003.16,0009.78,0002.29
2023-10-09 09:45:00,SystemResetWarning,0830.2,5.00,000.00,028.9,027.3,000.0,037.3,030.5,12.2,0000.0,0003.16,0009.89,0002.28
2023-10-09 09:46:00,SystemResetWarning,0830.2,5.00,000.00,028.9,027.3,000.0,037.3,030.5,12.2,0000.0,0003.19,0010.21,0002.29
2023-10-09 09:47:00,SystemResetWarning,0830.2,4.99,000.00,028.9,027.3,000.0,037.3,030.5,12.2,0000.0,0003.20,0010.36,0002.28
2023-10-09 09:48:00,SystemResetWarning,0830.2,5.00,000.00,028.9,027.3,000.0,037.3,030.5,12.1,0000.0,0003.20,0010.07,0002.29
2023-10-09 09:49:00,SystemResetWarning,0830.2,5.01,000.00,028.9,027.3,000.0,037.3,030.5,12.1,0000.0,0003.18,0010.42,0002.29
2023-10-09 09:50:00,SystemResetWarning,0830.2,5.01,000.00,028.8,027.3,000.0,037.3,030.4,12.1,0000.0,0003.12,0009.88,0002.27
2023-10-09 09:51:00,SystemResetWarning,0830.2,5.01,000.00,028.8,027.3,000.0,037.3,030.4,12.1,0000.0,0003.17,0008.81,0002.26
2023-10-09 09:52:00,SystemResetWarning,0830.2,5.00,000.00,028.8,027.3,000.0,037.3,030.4,12.1,0000.0,0003.20,0008.04,0002.26
2023-10-09 09:53:00,SystemResetWarning,0830.2,4.99,000.00,028.9,027.3,000.0,037.3,030.4,12.1,0000.0,0003.21,0007.93,0002.28
2023-10-09 09:54:00,SystemResetWarning,0830.2,4.99,000.00,028.9,027.3,000.0,037.3,030.4,12.1,0000.0,0003.24,0008.02,0002.29
2023-10-09 09:55:00,SystemResetWarning,0830.2,5.00,000.00,028.8,027.3,000.0,037.3,030.4,12.2,0000.0,0003.27,0008.10,0002.31
2023-10-09 09:56:00,SystemResetWarning,0830.2,5.00,000.00,028.8,027.3,000.0,037.3,030.4,12.2,0000.0,0003.27,0007.96,0002.32
2023-10-09 09:57:00,SystemResetWarning,0830.2,5.00,000.00,028.8,027.3,000.0,037.3,030.4,12.2,0000.0,0003.23,0007.91,0002.32
2023-10-09 09:58:00,SystemResetWarning,0830.3,5.00,000.00,028.8,027.3,000.0,037.3,030.4,12.1,0000.0,0003.18,0007.72,0002.31
2023-10-09 09:59:00,SystemResetWarning,0830.3,4.99,000.00,028.8,027.3,000.0,037.3,030.4,12.1,0000.0,0003.18,0007.72,0002.31
